Hondo, TX

2:56 PM CST on December 05, 2019 (GMT -0600)
Hondo Municipal

Weather History for KHDO - October, 2019

Change the Weather History Date:

Thursday, October 24, 2019

  Actual Average Record
Temperature  
Mean Temperature 66 °F -  
Max Temperature 86 °F 78 °F 93 °F (2001)
Min Temperature 48 °F 56 °F 37 °F (2008)
Cooling Degree Days 1    
Growing Degree Days 16 (Base 50)    
Moisture  
Dew Point 62 °F    
Average Humidity 77    
Maximum Humidity 100    
Minimum Humidity 51    
Precipitation  
Precipitation 1.46 in - - ()
Sea Level Pressure  
Sea Level Pressure 29.94 in    
Wind  
Wind Speed 12 mph (ENE)    
Max Wind Speed 34 mph    
Max Gust Speed 41 mph    
Visibility 8 miles    
Events Rain , Thunderstorm    
Averages and records for this station are not official NWS values.
T = Trace of Precipitation, MM = Missing Value Source: NWS Daily Summary

Daily Weather History Graph

Daily Weather History Graph

Search for Another Location

Airport or City:

Astronomy

Oct. 24, 2019 Rise Set
Actual Time 7:43 AM CDT 6:57 PM CDT
Civil Twilight 7:19 AM CDT 7:21 PM CDT
Nautical Twilight 6:51 AM CDT 7:49 PM CDT
Astronomical Twilight 6:24 AM CDT 8:17 PM CDT
Moon 3:43 AM CDT (10/24) 5:01 PM CDT (10/24)
Length of Visible Light 12h 02m
Length of Day
11h 13m
Waning Crescent, 16% of the Moon is Illuminated
Oct 24
Waning Crescent
Oct 27
New
Nov 4
First Quarter
Nov 12
Full
Nov 19
Last Quarter

Hourly Weather History & Observations

Time (CDT) Temp. Heat Index Dew Point Humidity Pressure Visibility Wind Dir Wind Speed Gust Speed Precip Events Conditions
12:51 AM 69.1 °F - 62.1 °F 78% 29.94 in 10.0 mi SE 6.9 mph - N/A   Overcast
1:51 AM 70.0 °F - 63.0 °F 78% 29.92 in 10.0 mi ESE 8.1 mph - N/A   Overcast
2:51 AM 70.0 °F - 63.0 °F 78% 29.92 in 10.0 mi East 5.8 mph - N/A   Overcast
3:43 AM 70.0 °F - 63.0 °F 78% 29.95 in 10.0 mi East 5.8 mph - N/A   Overcast
3:51 AM 70.0 °F - 63.0 °F 78% 29.91 in 10.0 mi East 5.8 mph - N/A   Overcast
4:44 AM 70.0 °F - 63.0 °F 78% 29.93 in 10.0 mi ESE 6.9 mph - N/A   Overcast
4:51 AM 70.0 °F - 63.0 °F 78% 29.89 in 10.0 mi ESE 6.9 mph - N/A   Overcast
5:51 AM 70.0 °F - 63.0 °F 78% 29.90 in 10.0 mi East 5.8 mph - N/A   Overcast
6:04 AM 70.0 °F - 63.0 °F 78% 29.94 in 10.0 mi ESE 5.8 mph - N/A   Overcast
6:51 AM 69.1 °F - 64.0 °F 84% 29.91 in 10.0 mi ESE 9.2 mph - N/A   Overcast
7:51 AM 70.0 °F - 64.0 °F 81% 29.91 in 10.0 mi ESE 9.2 mph - N/A   Overcast
8:51 AM 70.0 °F - 64.9 °F 84% 29.93 in 10.0 mi SE 8.1 mph - N/A   Overcast
9:51 AM 70.0 °F - 66.9 °F 90% 29.96 in 9.0 mi ESE 5.8 mph - 0.00 in Rain Light Rain
10:51 AM 72.0 °F - 66.9 °F 84% 29.95 in 10.0 mi SE 8.1 mph - 0.00 in   Overcast
11:51 AM 75.9 °F - 66.9 °F 74% 29.94 in 10.0 mi SE 10.4 mph - N/A   Overcast
12:51 PM 79.0 °F - 66.9 °F 66% 29.92 in 10.0 mi SSE 9.2 mph 18.4 mph N/A   Overcast
1:51 PM 81.0 °F 83.3 °F 66.9 °F 62% 29.88 in 10.0 mi SSE 8.1 mph - N/A   Overcast
2:51 PM 82.0 °F 84.5 °F 66.9 °F 60% 29.85 in 10.0 mi SSE 6.9 mph - 0.00 in   Overcast
3:51 PM 84.9 °F 87.1 °F 66.0 °F 53% 29.83 in 10.0 mi South 6.9 mph - N/A   Scattered Clouds
4:51 PM 84.9 °F 86.6 °F 64.9 °F 51% 29.82 in 10.0 mi South 4.6 mph - N/A   Mostly Cloudy
5:51 PM 84.0 °F 86.3 °F 66.0 °F 55% 29.82 in 10.0 mi SE 3.5 mph - 0.00 in Rain Light Rain
6:51 PM 82.0 °F 83.8 °F 64.9 °F 56% 29.81 in 10.0 mi NNW 3.5 mph - 0.00 in   Partly Cloudy
7:31 PM 78.1 °F - 66.0 °F 66% 29.89 in 10.0 mi NNE 21.9 mph 33.4 mph N/A Thunderstorm Overcast
7:51 PM 64.9 °F - 54.0 °F 68% 29.91 in 10.0 mi NNE 24.2 mph 38.0 mph N/A Thunderstorm Overcast
8:02 PM 59.0 °F - 55.0 °F 87% 29.93 in 2.0 mi North 28.8 mph 36.8 mph 0.23 in Rain , Thunderstorm Heavy Rain
8:04 PM 59.0 °F - 55.0 °F 87% 29.92 in 1.5 mi North 34.5 mph 41.4 mph 0.27 in Rain , Thunderstorm Heavy Rain
8:16 PM 57.0 °F - 55.0 °F 93% 29.95 in 2.0 mi North 24.2 mph 39.1 mph 0.39 in Rain Heavy Rain
8:19 PM 57.0 °F - 54.0 °F 89% 29.97 in 3.0 mi North 25.3 mph 33.4 mph 0.39 in Rain Rain
8:30 PM 55.9 °F - 55.0 °F 97% 29.99 in 2.5 mi North 27.6 mph 32.2 mph 0.58 in Rain Heavy Rain
8:32 PM 55.9 °F - 55.0 °F 97% 29.98 in 1.8 mi North 26.5 mph 32.2 mph 0.67 in Rain Heavy Rain
8:42 PM 54.0 °F - 54.0 °F 100% 29.96 in 1.0 mi North 32.2 mph 38.0 mph 1.00 in Rain Heavy Rain
8:46 PM 53.6 °F - - N/A% 29.97 in 1.2 mi North 27.6 mph 38.0 mph 1.05 in Rain , Thunderstorm Heavy Thunderstorms and Rain
8:51 PM 54.0 °F - - N/A% 29.93 in 2.5 mi North 28.8 mph 36.8 mph 1.06 in Rain , Thunderstorm Thunderstorms and Rain
8:58 PM 54.0 °F - - N/A% 29.95 in 6.0 mi NNE 26.5 mph 40.3 mph 0.01 in Rain , Thunderstorm Thunderstorms and Rain
9:08 PM 54.0 °F - - N/A% 29.98 in 10.0 mi North 23.0 mph 34.5 mph 0.01 in Rain , Thunderstorm Light Thunderstorms and Rain
9:37 PM 53.1 °F - - N/A% 30.00 in 10.0 mi North 25.3 mph 35.7 mph 0.03 in Rain , Thunderstorm Rain
9:46 PM 51.8 °F - - N/A% 30.01 in 9.0 mi North 28.8 mph 38.0 mph 0.04 in Rain , Thunderstorm Thunderstorms and Rain
9:51 PM 51.1 °F - - N/A% 30.00 in 9.0 mi North 25.3 mph 38.0 mph 0.05 in Rain , Thunderstorm Thunderstorms and Rain
10:01 PM 51.1 °F - - N/A% 30.03 in 7.0 mi North 26.5 mph 35.7 mph 0.02 in Rain , Thunderstorm Rain
10:51 PM 50.0 °F - - N/A% 30.08 in 7.0 mi North - - 0.14 in Rain Rain
11:02 PM 48.9 °F - - N/A% 30.07 in 5.0 mi North - - 0.06 in Rain , Thunderstorm Heavy Thunderstorms and Rain
11:28 PM 48.0 °F - - N/A% 30.10 in 4.0 mi North - - 0.16 in Rain Heavy Rain
11:51 PM 48.0 °F - - N/A% 30.11 in 7.0 mi North - - 0.21 in Rain Rain